Regional Weather Roundup
Issued by NWS

Home | Current Version | Previous Version | Graphics & Text | Print | Product List | Glossary On
Versions: 1 2 3 4 5 6 7 8 9 10 11 12 13 14 15 16 17 18 19 20 21 22 23 24 25 26 27 28 29 30 31 32 33 34 35 36 37 38 39 40 41 42 43 44 45 46 47 48 49 50
000
ASUS45 KBOI 171910
RWRID

IDAHO REGIONAL WEATHER ROUNDUP
NATIONAL WEATHER SERVICE BOISE ID
1200 PM MST FRI NOV 17 2017

NOTE: "FAIR" INDICATES FEW OR NO CLOUDS BELOW 12000 FEET
WITH NO SIGNIFICANT WEATHER AND/OR OBSTRUCTIONS TO VISIBILITY

IDZ012-014-172000-
SOUTHWEST IDAHO


CITY           SKY/WX    TMP DP  RH WIND       PRES   REMARKS
BOISE          CLOUDY    43  26  51 NW21G31   30.03R
CALDWELL       MOSUNNY   47  25  42 W17G26    30.05R
MOUNTAIN HOME  MOSUNNY   45  30  55 NW21      30.01R
$$

IDZ016-017-172000-
SOUTHCENTRAL IDAHO


CITY           SKY/WX    TMP DP  RH WIND       PRES   REMARKS
BURLEY         CLOUDY    36  32  85 W14G24    29.92R WCI  27
JEROME         PTSUNNY   37  30  75 SW22G32   29.94R WCI  26
TWIN FALLS     PTSUNNY   35  33  92 W18G25    29.96R WCI  24
$$

IDZ019>023-172000-
SOUTHEAST IDAHO


CITY           SKY/WX    TMP DP  RH WIND       PRES   REMARKS
IDAHO FALLS    CLOUDY    35  31  85 SW15G23   29.80S WCI  25
POCATELLO      CLOUDY    36  30  80 MISG      29.86R
REXBURG        PTSUNNY   36  31  82 SW17      29.78R WCI  26
$$

IDZ006-010-011-018-031-032-172000-
CENTRAL IDAHO MOUNTAINS


CITY           SKY/WX    TMP DP  RH WIND       PRES   REMARKS
MCCALL         PTSUNNY   33  22  63 SW7       29.91R WCI  27
HAILEY         MOSUNNY   37  19  48 W15       29.84R WCI  28
STANLEY          N/A     28  18  66 VRB3      29.87R
SALMON         CLOUDY    37  24  59 CALM      29.86R
CHALLIS        MOSUNNY   41  13  31 W14G21    29.83R
$$

IDZ002-004-006-007-026-172000-
NORTHERN IDAHO


CITY           SKY/WX    TMP DP  RH WIND       PRES   REMARKS
LEWISTON       MOSUNNY   49  32  52 VRB5      29.97R
LOWELL           N/A     40  38  93 N3        29.99R
COEUR D`ALENE  CLOUDY    38  30  73 SW9       29.91R WCI  31
MULLAN PASS    LGT SNOW  23  20  88 VRB5      29.77R FOG     WCI  17
$$



USA.gov is the U.S. government's official web portal to all federal, state and local government web resources and services.